EDV5365 KATL-KCHA

Flight info

Callsign EDV5365
Flight time 0h 25m
Altitude 14000
Route PENCL2 PENCL
Aircraft CRJ9/M-SDFGIRWY/S

Departure

Time 2026-05-06 13:14
Airport Hartsfield Jackson Atlanta International Airport (KATL)

Arrival

Time 2026-05-06 13:39
Airport Chattanooga Metropolitan Airport (Lovell Field) (KCHA)
Time Latitude Longitude Altitude Speed Heading
2026-05-06 13:02 33.64192 -84.42881 1024 ft 0 kts 269°
2026-05-06 13:06 33.64192 -84.42873 1034 ft 2 kts 269°
2026-05-06 13:07 33.64192 -84.42856 1034 ft 2 kts 272°
2026-05-06 13:07 33.64190 -84.42838 1034 ft 2 kts 287°
2026-05-06 13:07 33.64184 -84.42826 1034 ft 2 kts 315°
2026-05-06 13:07 33.64175 -84.42817 1034 ft 2 kts 329°
2026-05-06 13:08 33.64168 -84.42812 1034 ft 0 kts 331°
2026-05-06 13:08 33.64174 -84.42814 1034 ft 1 kts 358°
2026-05-06 13:09 33.64218 -84.42810 1034 ft 10 kts
2026-05-06 13:09 33.64290 -84.42808 1034 ft 10 kts
2026-05-06 13:09 33.64363 -84.42808 1034 ft 11 kts 359°
2026-05-06 13:09 33.64438 -84.42802 1034 ft 11 kts 27°
2026-05-06 13:10 33.64468 -84.42704 1034 ft 16 kts 87°
2026-05-06 13:10 33.64469 -84.42564 1033 ft 18 kts 90°
2026-05-06 13:10 33.64469 -84.42411 1033 ft 19 kts 90°
2026-05-06 13:10 33.64477 -84.42255 1033 ft 18 kts 71°
2026-05-06 13:11 33.64537 -84.42117 1033 ft 19 kts 73°
2026-05-06 13:11 33.64543 -84.41940 1033 ft 23 kts 90°
2026-05-06 13:11 33.64543 -84.41735 1034 ft 25 kts 90°
2026-05-06 13:11 33.64543 -84.41532 1034 ft 24 kts 90°
2026-05-06 13:12 33.64543 -84.41330 1034 ft 24 kts 90°
2026-05-06 13:12 33.64543 -84.41129 1034 ft 24 kts 90°
2026-05-06 13:12 33.64543 -84.40929 1033 ft 24 kts 90°
2026-05-06 13:12 33.64567 -84.40757 1033 ft 20 kts 78°
2026-05-06 13:13 33.64574 -84.40612 1033 ft 13 kts 73°
2026-05-06 13:13 33.64649 -84.40573 1031 ft 12 kts 359°
2026-05-06 13:13 33.64680 -84.40625 1031 ft 10 kts 270°
2026-05-06 13:13 33.64679 -84.40831 1033 ft 53 kts 269°
2026-05-06 13:14 33.64679 -84.41579 1035 ft 123 kts 270°
2026-05-06 13:14 33.64684 -84.42826 1123 ft 168 kts 267°
2026-05-06 13:14 33.64763 -84.44298 1753 ft 182 kts 274°
2026-05-06 13:14 33.65112 -84.45874 2317 ft 209 kts 283°
2026-05-06 13:15 33.65652 -84.47580 2961 ft 228 kts 288°
2026-05-06 13:15 33.66312 -84.49379 3657 ft 243 kts 290°
2026-05-06 13:15 33.66994 -84.51277 4570 ft 252 kts 290°
2026-05-06 13:15 33.67637 -84.53214 5759 ft 252 kts 288°
2026-05-06 13:16 33.68331 -84.55199 6791 ft 256 kts 295°
2026-05-06 13:16 33.69605 -84.56751 7736 ft 272 kts 327°
2026-05-06 13:16 33.71384 -84.57647 8594 ft 282 kts 334°
2026-05-06 13:16 33.73297 -84.58314 9430 ft 295 kts 346°
2026-05-06 13:17 33.75360 -84.58410 10198 ft 305 kts 354°
2026-05-06 13:17 33.77498 -84.58318 10892 ft 313 kts 355°
2026-05-06 13:17 33.79763 -84.58226 11095 ft 337 kts 355°
2026-05-06 13:17 33.82180 -84.58156 11421 ft 357 kts 355°
2026-05-06 13:18 33.84716 -84.58128 11848 ft 370 kts 349°
2026-05-06 13:18 33.87256 -84.58697 12258 ft 374 kts 338°
2026-05-06 13:18 33.89742 -84.59577 13031 ft 376 kts 336°
2026-05-06 13:18 33.92272 -84.60493 13629 ft 386 kts 336°
2026-05-06 13:19 33.94894 -84.61423 13899 ft 403 kts 336°
2026-05-06 13:19 33.97615 -84.62343 14000 ft 409 kts 338°
2026-05-06 13:19 34.00363 -84.63223 14022 ft 409 kts 338°
2026-05-06 13:19 34.03112 -84.64108 14038 ft 410 kts 338°
2026-05-06 13:20 34.05870 -84.64997 14038 ft 411 kts 338°
2026-05-06 13:20 34.08635 -84.65895 14041 ft 412 kts 338°
2026-05-06 13:20 34.11393 -84.66782 14060 ft 410 kts 338°
2026-05-06 13:20 34.14154 -84.67642 14033 ft 409 kts 338°
2026-05-06 13:21 34.16866 -84.68488 14036 ft 407 kts 337°
2026-05-06 13:21 34.19598 -84.69367 14035 ft 406 kts 337°
2026-05-06 13:21 34.22320 -84.70251 14029 ft 405 kts 337°
2026-05-06 13:21 34.25042 -84.71120 14030 ft 406 kts 339°
2026-05-06 13:22 34.27864 -84.71612 14018 ft 414 kts 348°
2026-05-06 13:22 34.30752 -84.71727 14031 ft 417 kts 352°
2026-05-06 13:22 34.33651 -84.71735 14021 ft 416 kts 352°
2026-05-06 13:22 34.36545 -84.71738 14027 ft 415 kts 352°
2026-05-06 13:23 34.39420 -84.71799 14031 ft 412 kts 350°
2026-05-06 13:23 34.42274 -84.71923 14027 ft 410 kts 350°
2026-05-06 13:23 34.45085 -84.72028 14023 ft 408 kts 350°
2026-05-06 13:23 34.47907 -84.72135 14007 ft 404 kts 350°
2026-05-06 13:24 34.50681 -84.72235 14013 ft 401 kts 349°
2026-05-06 13:24 34.53456 -84.72346 14014 ft 398 kts 350°
2026-05-06 13:24 34.56219 -84.72444 14011 ft 396 kts 349°
2026-05-06 13:24 34.58962 -84.72544 14011 ft 394 kts 349°
2026-05-06 13:25 34.61694 -84.72648 14010 ft 392 kts 349°
2026-05-06 13:25 34.63671 -84.72719 13950 ft 390 kts 350°
2026-05-06 13:25 34.65420 -84.72780 13726 ft 388 kts 351°
2026-05-06 13:25 34.67970 -84.72871 13277 ft 386 kts 350°
2026-05-06 13:26 34.70221 -84.72950 12895 ft 384 kts 350°
2026-05-06 13:26 34.72876 -84.73048 12448 ft 380 kts 351°
2026-05-06 13:26 34.75506 -84.73147 12040 ft 377 kts 351°
2026-05-06 13:26 34.78113 -84.73243 11629 ft 374 kts 351°
2026-05-06 13:27 34.80610 -84.73605 11183 ft 359 kts 336°
2026-05-06 13:27 34.82958 -84.74552 10752 ft 353 kts 333°
2026-05-06 13:27 34.85261 -84.75552 10378 ft 350 kts 333°
2026-05-06 13:27 34.87490 -84.76550 10186 ft 341 kts 332°
2026-05-06 13:28 34.89685 -84.77539 10112 ft 331 kts 332°
2026-05-06 13:28 34.91807 -84.78488 9842 ft 328 kts 332°
2026-05-06 13:28 34.93683 -84.79333 9413 ft 322 kts 332°
2026-05-06 13:28 34.94947 -84.79904 9141 ft 319 kts 332°
2026-05-06 13:29 34.97003 -84.80841 8687 ft 313 kts 332°
2026-05-06 13:29 34.99026 -84.81768 8236 ft 308 kts 332°
2026-05-06 13:29 35.01010 -84.82683 7776 ft 303 kts 332°
2026-05-06 13:29 35.02969 -84.83585 7304 ft 298 kts 331°
2026-05-06 13:30 35.04886 -84.84494 6882 ft 294 kts 332°
2026-05-06 13:30 35.06757 -84.85371 6468 ft 290 kts 332°
2026-05-06 13:30 35.08619 -84.86264 5994 ft 286 kts 332°
2026-05-06 13:30 35.10461 -84.87135 5556 ft 282 kts 332°
2026-05-06 13:31 35.12266 -84.88007 5216 ft 275 kts 332°
2026-05-06 13:31 35.14009 -84.88828 5107 ft 262 kts 334°
2026-05-06 13:31 35.15677 -84.89577 5045 ft 248 kts 328°
2026-05-06 13:31 35.17241 -84.90446 4661 ft 250 kts 329°
2026-05-06 13:32 35.18889 -84.91184 4325 ft 257 kts 334°
2026-05-06 13:32 35.20628 -84.91933 4177 ft 268 kts 327°
2026-05-06 13:32 35.21951 -84.93398 4126 ft 253 kts 290°
2026-05-06 13:32 35.22212 -84.95419 4095 ft 235 kts 263°
2026-05-06 13:33 35.22107 -84.97360 4012 ft 231 kts 264°
2026-05-06 13:33 35.21992 -84.99279 4028 ft 219 kts 261°
2026-05-06 13:33 35.21818 -85.01070 4010 ft 206 kts 260°
2026-05-06 13:33 35.21483 -85.02739 3844 ft 201 kts 251°
2026-05-06 13:34 35.20992 -85.04324 3584 ft 198 kts 249°
2026-05-06 13:34 35.20541 -85.05913 3345 ft 199 kts 250°
2026-05-06 13:34 35.20105 -85.07522 3135 ft 200 kts 249°
2026-05-06 13:34 35.19656 -85.09122 3039 ft 198 kts 249°
2026-05-06 13:35 35.19201 -85.10710 2945 ft 197 kts 250°
2026-05-06 13:35 35.18738 -85.12316 2951 ft 203 kts 248°
2026-05-06 13:35 35.18258 -85.13952 2933 ft 204 kts 249°
2026-05-06 13:35 35.17560 -85.15377 2899 ft 191 kts 218°
2026-05-06 13:36 35.16367 -85.15923 2916 ft 182 kts 192°
2026-05-06 13:36 35.15134 -85.16208 2942 ft 177 kts 195°
2026-05-06 13:36 35.13941 -85.16530 2478 ft 181 kts 199°
2026-05-06 13:36 35.12785 -85.16890 2440 ft 167 kts 200°
2026-05-06 13:37 35.11640 -85.17268 2278 ft 170 kts 197°
2026-05-06 13:37 35.10538 -85.17695 2051 ft 155 kts 201°
2026-05-06 13:37 35.09547 -85.18068 1727 ft 138 kts 200°
2026-05-06 13:37 35.08692 -85.18409 1631 ft 127 kts 198°
2026-05-06 13:38 35.07807 -85.18750 1526 ft 138 kts 194°
2026-05-06 13:38 35.06882 -85.19071 1443 ft 141 kts 197°
2026-05-06 13:38 35.05901 -85.19434 1218 ft 151 kts 193°
2026-05-06 13:38 35.04913 -85.19779 918 ft 145 kts 197°
2026-05-06 13:39 35.03974 -85.20130 692 ft 134 kts 196°
2026-05-06 13:39 35.03202 -85.20409 677 ft 92 kts 196°
2026-05-06 13:39 35.02741 -85.20577 677 ft 46 kts 197°
2026-05-06 13:39 35.02582 -85.20587 677 ft 17 kts 120°
2026-05-06 13:40 35.02598 -85.20490 677 ft 18 kts 20°
2026-05-06 13:40 35.02793 -85.20418 678 ft 35 kts 17°
2026-05-06 13:40 35.03026 -85.20334 678 ft 35 kts 17°
2026-05-06 13:40 35.03225 -85.20216 677 ft 30 kts 52°
2026-05-06 13:41 35.03369 -85.20087 679 ft 27 kts 16°
2026-05-06 13:41 35.03559 -85.20019 675 ft 30 kts 17°
2026-05-06 13:41 35.03689 -85.19956 679 ft 15 kts 53°
2026-05-06 13:41 35.03726 -85.19859 679 ft 8 kts 66°
2026-05-06 13:42 35.03732 -85.19840 679 ft 2 kts 66°
2026-05-06 13:42 35.03734 -85.19835 679 ft 0 kts 67°